{"data":{"norad_id":61617,"epoch":"2026-05-24T23:24:35.161344Z","epoch_age_seconds":70436,"freshness":"FRESH","line1":"1 61617U 24190A   26144.97540696  .00006615  00000+0  27561-3 0  9991","line2":"2 61617  34.9912 343.7242 0004058 124.6257 235.4840 15.23026646 88322","mean_motion":15.23026646,"eccentricity":0.0004058,"inclination_deg":34.9912,"raan_deg":343.7242,"arg_perigee_deg":124.6257,"mean_anomaly_deg":235.484,"bstar":0.00027561,"rev_number":8832,"period_min":94.548575613036,"perigee_km":493.92761740668,"apogee_km":499.50724926478,"semimajor_km":6874.8544333357,"source":"CELESTRAK","updated_at":"2026-05-25T13:38:02.453911Z"}}